Weather History for Stanley, ND

Change the Weather History Date:

Friday, October 12, 2012

  Actual Average (KMOT) Record (KMOT)
Temperature  
Mean Temperature 40 °F 46 °F  
Max Temperature 57 °F 57 °F 87 °F (1934)
Min Temperature 24 °F 35 °F 3 °F (1917)
Degree Days  
Heating Degree Days 24 19  
Month to date heating degree days 196  
Since 1 July heating degree days 516  
Cooling Degree Days 0 0  
Month to date cooling degree days 0  
Year to date cooling degree days 444  
Moisture  
Dew Point 30 °F    
Average Humidity 68    
Maximum Humidity 87    
Minimum Humidity 38    
Precipitation  
Precipitation 0.00 in 0.04 in 0.75 in (2008)
Month to date precipitation 0.53  
Year to date precipitation 15.43  
Sea Level Pressure  
Sea Level Pressure 29.88 in    
Wind  
Wind Speed 12 mph (South)    
Max Wind Speed 25 mph    
Max Gust Speed 32 mph    
Visibility 10 miles    
Events      
T = Trace of Precipitation, MM = Missing Value Source: NWS Daily Summary

Daily Weather History Graph

Daily Weather History Graph

Search for Another Location

Airport:

Trip Planner

Search our weather history database for the weather conditions in past years. The results will help you decide how hot, cold, wet, or windy it might be!

Date:

Astronomy

Oct. 12, 2012 Rise Set
Actual Time 8:05 AM CDT 7:05 PM CDT
Civil Twilight 7:34 AM CDT 7:36 PM CDT
Nautical Twilight 6:58 AM CDT 8:12 PM CDT
Astronomical Twilight 6:21 AM CDT 8:49 PM CDT
Moon 4:38 AM CDT (10/12) 5:26 PM CDT (10/12)
Length of Visible Light 12h 02m
Length of Day
10h 59m
Waning Crescent, 10% of the Moon is Illuminated
Oct 12
Waning Crescent
Oct 15
New
Oct 21
First Quarter
Oct 29
Full
Nov 6
Last Quarter

Hourly Weather History & Observations

Time (CDT) Temp. Windchill Dew Point Humidity Pressure Visibility Wind Dir Wind Speed Gust Speed Precip Events Conditions
12:35 AM 24.8 °F 19.1 °F 21.2 °F 86% 30.23 in 10.0 mi South 4.6 mph - N/A   Mostly Cloudy
12:55 AM 28.4 °F 22.2 °F 24.8 °F 86% 30.22 in 10.0 mi South 5.8 mph - N/A   Overcast
1:15 AM 30.2 °F 26.7 °F 24.8 °F 80% 30.21 in 10.0 mi South 3.5 mph - N/A   Overcast
1:35 AM 32.0 °F 22.5 °F 26.6 °F 80% 30.20 in 10.0 mi South 12.7 mph 17.3 mph N/A   Overcast
1:55 AM 32.0 °F 21.2 °F 26.6 °F 80% 30.18 in 10.0 mi South 16.1 mph - N/A   Overcast
2:15 AM 32.0 °F 22.1 °F 26.6 °F 80% 30.18 in 10.0 mi South 13.8 mph 21.9 mph N/A   Overcast
2:35 AM 33.8 °F 23.5 °F 26.6 °F 75% 30.16 in 10.0 mi South 16.1 mph - N/A   Overcast
2:55 AM 33.8 °F 23.5 °F 26.6 °F 75% 30.14 in 10.0 mi South 16.1 mph 20.7 mph N/A   Mostly Cloudy
3:15 AM 33.8 °F 23.5 °F 26.6 °F 75% 30.14 in 10.0 mi South 16.1 mph 24.2 mph N/A   Scattered Clouds
3:55 AM 33.8 °F 25.3 °F 26.6 °F 75% 30.12 in 10.0 mi SSE 11.5 mph 18.4 mph N/A   Overcast
4:15 AM 32.0 °F 22.1 °F 26.6 °F 80% 30.10 in 10.0 mi South 13.8 mph 19.6 mph N/A   Scattered Clouds
4:35 AM 32.0 °F 24.8 °F 26.6 °F 80% 30.10 in 10.0 mi South 8.1 mph - N/A   Clear
5:15 AM 32.0 °F 23.0 °F 26.6 °F 80% 30.07 in 10.0 mi South 11.5 mph - N/A   Scattered Clouds
5:35 AM 32.0 °F 21.2 °F 26.6 °F 80% 30.06 in 10.0 mi South 16.1 mph - N/A   Partly Cloudy
5:55 AM 32.0 °F 21.6 °F 26.6 °F 80% 30.05 in 10.0 mi South 15.0 mph 18.4 mph N/A   Clear
6:15 AM 32.0 °F 21.6 °F 26.6 °F 80% 30.04 in 10.0 mi South 15.0 mph - N/A   Mostly Cloudy
7:15 AM 32.0 °F 21.6 °F 26.6 °F 80% 30.02 in 10.0 mi SSE 15.0 mph - N/A   Mostly Cloudy
7:35 AM 32.0 °F 20.8 °F 26.6 °F 80% 30.00 in 10.0 mi South 17.3 mph - N/A   Partly Cloudy
7:55 AM 32.0 °F 20.5 °F 26.6 °F 80% 29.99 in 10.0 mi South 18.4 mph 23.0 mph N/A   Clear
8:15 AM 32.0 °F 20.5 °F 26.6 °F 80% 29.98 in 10.0 mi South 18.4 mph - N/A   Clear
8:35 AM 32.0 °F 20.8 °F 28.4 °F 87% 29.98 in 10.0 mi South 17.3 mph - N/A   Clear
9:15 AM 33.8 °F 24.8 °F 30.2 °F 87% 29.97 in 10.0 mi South 12.7 mph - N/A   Clear
9:35 AM 35.6 °F 24.2 °F 32.0 °F 87% 29.95 in 10.0 mi South 21.9 mph 26.5 mph N/A   Clear
9:55 AM 37.4 °F 25.9 °F 32.0 °F 81% 29.94 in 10.0 mi South 25.3 mph 32.2 mph N/A   Clear
10:15 AM 39.2 °F 28.7 °F 30.2 °F 70% 29.93 in 10.0 mi South 23.0 mph 29.9 mph N/A   Clear
10:35 AM 39.2 °F 28.3 °F 30.2 °F 70% 29.92 in 10.0 mi South 25.3 mph 31.1 mph N/A   Clear
10:55 AM 41.0 °F 31.1 °F 30.2 °F 65% 29.91 in 10.0 mi South 23.0 mph 29.9 mph N/A   Clear
11:15 AM 41.0 °F 31.4 °F 30.2 °F 65% 29.89 in 10.0 mi South 21.9 mph 27.6 mph N/A   Clear
11:35 AM 44.6 °F 36.6 °F 32.0 °F 61% 29.89 in 7.0 mi South 19.6 mph 26.5 mph N/A   Clear
12:15 PM 46.4 °F 39.5 °F 32.0 °F 57% 29.86 in 10.0 mi South 17.3 mph 27.6 mph N/A   Clear
12:35 PM 46.4 °F 39.0 °F 32.0 °F 57% 29.86 in 10.0 mi South 19.6 mph 26.5 mph N/A   Clear
12:55 PM 48.2 °F - 32.0 °F 54% 29.84 in 10.0 mi South 21.9 mph - N/A   Clear
1:35 PM 50.0 °F - 32.0 °F 50% 29.81 in 10.0 mi South 18.4 mph 23.0 mph N/A   Clear
2:55 PM 53.6 °F - 32.0 °F 44% 29.76 in 10.0 mi South 18.4 mph 27.6 mph N/A   Clear
3:35 PM 55.4 °F - 32.0 °F 41% 29.74 in 10.0 mi South 17.3 mph 21.9 mph N/A   Clear
3:55 PM 55.4 °F - 32.0 °F 41% 29.73 in 10.0 mi South 13.8 mph - N/A   Clear
4:15 PM 57.2 °F - 32.0 °F 38% 29.72 in 10.0 mi South 16.1 mph 23.0 mph N/A   Clear
4:35 PM 57.2 °F - 32.0 °F 38% 29.71 in 10.0 mi South 15.0 mph - N/A   Clear
4:55 PM 57.2 °F - 32.0 °F 38% 29.71 in 10.0 mi South 17.3 mph 21.9 mph N/A   Clear
5:15 PM 57.2 °F - 32.0 °F 38% 29.71 in 10.0 mi South 15.0 mph - N/A   Clear
5:35 PM 57.2 °F - 32.0 °F 38% 29.70 in 10.0 mi South 13.8 mph 20.7 mph N/A   Clear
6:15 PM 55.4 °F - 32.0 °F 41% 29.68 in 10.0 mi South 11.5 mph - N/A   Clear
6:35 PM 53.6 °F - 33.8 °F 47% 29.68 in 10.0 mi South 9.2 mph - N/A   Clear
6:55 PM 50.0 °F - 33.8 °F 54% 29.69 in 10.0 mi South 6.9 mph - N/A   Clear
7:15 PM 48.2 °F - 32.0 °F 54% 29.68 in 10.0 mi Calm Calm - N/A   Clear
7:55 PM 44.6 °F 41.4 °F 33.8 °F 66% 29.67 in 10.0 mi South 5.8 mph - N/A   Mostly Cloudy
8:15 PM 44.6 °F 40.7 °F 33.8 °F 66% 29.66 in 10.0 mi SSW 6.9 mph - N/A   Mostly Cloudy
8:35 PM 42.8 °F 40.1 °F 35.6 °F 76% 29.66 in 10.0 mi SSW 4.6 mph - N/A   Scattered Clouds
8:55 PM 41.0 °F - 32.0 °F 70% 29.66 in 10.0 mi Calm Calm - N/A   Mostly Cloudy
9:15 PM 41.0 °F 39.0 °F 33.8 °F 76% 29.66 in 10.0 mi South 3.5 mph - N/A   Scattered Clouds
9:35 PM 41.0 °F - 33.8 °F 76% 29.65 in 10.0 mi Calm Calm - N/A   Scattered Clouds
9:55 PM 41.0 °F - 33.8 °F 76% 29.65 in 10.0 mi Calm Calm - N/A   Mostly Cloudy
10:15 PM 37.4 °F - 32.0 °F 81% 29.66 in 10.0 mi Calm Calm - N/A   Overcast
10:55 PM 35.6 °F - 32.0 °F 87% 29.65 in 10.0 mi Calm Calm - N/A   Scattered Clouds
11:15 PM 37.4 °F 33.8 °F 32.0 °F 81% 29.65 in 10.0 mi SW 4.6 mph - N/A   Clear
11:35 PM 39.2 °F 35.0 °F 32.0 °F 75% 29.64 in 10.0 mi SW 5.8 mph - N/A   Partly Cloudy
11:55 PM 39.2 °F 35.9 °F 32.0 °F 75% 29.64 in 10.0 mi SSW 4.6 mph - N/A   Clear